Lid_Strength_Index
9 9 9 9 8 9 9 9 9 10 9 9 8 9 9 10 10 10 10 10 11 12 11 10 10 10 10 10 10 10 11 11 13 12 10 8 7 6 4 2 1 1 1
9 9 9 9 9 10 10 10 9 10 10 9 9 9 9 10 10 11 11 10 11 12 12 11 10 10 10 10 10 10 10 10 11 13 11 10 9 7 5 4 2 1 0
9 9 9 9 9 10 10 10 10 10 10 10 9 10 10 10 10 10 10 10 10 11 11 10 10 10 10 10 9 9 9 9 9 11 11 9 9 8 6 4 3 1 0
8 9 9 9 10 10 10 10 10 10 10 10 9 9 9 9 9 9 9 10 11 11 11 9 9 9 9 8 8 8 8 9 9 10 10 10 9 8 7 6 3 1 2
8 9 9 9 9 9 10 10 10 9 9 9 8 8 9 8 8 8 9 10 11 11 10 8 8 6 4 5 6 6 7 8 8 9 9 9 10 9 8 6 4 2 2
9 9 8 8 8 9 10 9 9 9 9 8 8 9 9 7 6 6 7 10 10 11 10 8 8 6 6 4 4 4 5 6 7 7 8 8 8 8 7 6 3 4 5
8 8 8 8 8 7 7 7 8 8 9 9 8 9 9 9 6 5 6 9 10 10 10 9 8 7 6 6 5 5 5 4 4 5 5 7 7 6 5 5 4 3 4
8 7 6 6 6 6 7 7 8 8 8 8 8 9 9 8 5 5 5 9 10 10 10 9 9 7 6 6 7 7 7 7 7 6 5 5 5 4 5 4 3 2 3
6 6 5 5 6 7 7 7 7 8 8 8 7 8 8 8 5 5 6 10 10 10 9 9 8 7 6 6 7 8 8 8 6 5 4 4 5 5 4 4 5 4 4
6 5 5 5 6 7 6 7 7 7 6 6 6 7 6 8 6 5 5 9 11 10 9 8 7 7 6 6 8 9 10 9 8 8 5 3 5 5 4 4 4 5 4
4 4 4 5 5 6 6 7 6 6 6 6 7 7 8 8 8 5 5 9 10 10 10 9 8 6 6 7 8 9 9 8 8 8 7 6 3 3 3 3 4 4 3
4 4 4 4 5 4 5 6 6 6 7 7 8 8 8 8 6 6 5 6 7 10 10 9 8 6 7 8 9 9 8 8 8 9 9 8 7 4 3 2 1 2 2
5 5 5 3 4 5 6 6 6 7 8 8 8 10 9 9 9 7 6 6 6 8 9 7 6 7 7 9 9 8 8 9 8 9 10 9 7 5 4 3 4 4 5
5 5 5 5 5 5 5 6 7 8 8 8 9 10 11 12 11 10 11 10 8 8 7 9 7 7 7 9 10 10 9 9 9 9 9 9 7 7 6 4 5 5 6
4 4 5 5 5 6 6 6 6 6 7 7 9 9 10 11 10 8 7 8 8 8 7 10 9 9 10 10 11 11 11 10 10 9 9 9 9 9 7 7 6 7 8
5 4 5 5 5 6 6 6 5 5 5 6 6 7 9 8 7 6 6 6 6 6 9 11 11 10 11 11 11 12 12 11 10 9 9 9 9 9 9 8 8 8 8
5 3 4 4 4 5 6 6 7 6 5 5 6 6 7 7 6 6 6 6 7 7 10 11 11 10 10 10 11 12 12 11 10 9 9 10 9 9 9 9 9 8 9
3 4 3 3 3 4 4 5 5 8 8 8 6 7 6 6 6 6 6 7 10 9 10 10 10 10 10 10 10 11 11 12 11 11 10 10 10 10 10 10 10 10 9
3 3 2 2 3 3 4 4 5 7 8 8 8 8 8 7 7 7 7 10 11 11 10 10 10 10 10 10 9 10 11 11 12 12 11 11 10 10 10 10 10 11 11
4 2 3 3 3 3 3 4 7 8 8 9 9 10 10 10 10 10 10 10 10 10 10 10 10 10 9 9 9 9 10 11 11 12 12 12 11 10 11 11 11 10 10
4 4 7 5 4 3 5 7 8 8 9 9 10 9 10 11 11 11 11 10 10 10 10 10 10 10 9 9 9 9 9 10 11 11 12 12 12 12 11 10 10 11 11
4 5 4 3 3 5 7 8 8 8 8 9 10 9 9 10 11 11 10 10 10 10 10 10 10 10 9 9 9 9 9 9 10 11 12 12 12 12 12 11 10 10 11
4 4 4 5 5 7 8 8 8 8 8 9 10 10 10 10 10 10 10 10 10 10 10 10 9 10 9 8 8 9 9 10 10 10 11 12 13 13 12 12 11 11 11
4 4 5 7 7 8 8 8 8 8 8 8 9 9 10 10 10 10 10 10 10 10 10 10 9 9 10 9 9 8 9 9 10 10 10 12 12 13 12 12 11 11 11
4 5 6 7 7 8 8 7 8 8 8 8 9 10 10 10 10 10 10 10 10 10 10 10 10 10 10 10 9 8 9 10 10 10 11 12 13 12 12 12 11 11 11
4 5 6 7 7 7 7 8 8 8 9 9 9 10 10 10 10 10 10 11 11 10 10 11 10 10 10 10 9 10 10 11 11 12 12 12 13 13 13 11 11 10 10